Location: Gu�tanj
(46.5431°N, 14.9692°E)
Time: 17:22:00
(UTC+00:00)

Cosmos 1461 - Pass Details

Date: 03 March 2021
Orbit: 505 x 659 km, 65.0° (Epoch: 14 April)

Event Time Altitude Azimuth Distance (km) Brightness Sun altitude
Rises 17:29:19 0° 225° (SW) 2,959 7.3 -7.7°
Reaches altitude 10° 17:31:38 10° 229° (SW) 2,062 6.6 -8.1°
Maximum altitude 17:36:17 61° 310° (NW) 753 3.8 -8.9°
Drops below altitude 10° 17:40:59 10° 31° (NNE) 2,076 5.5 -9.7°
Sets 17:43:19 0° 35° (NE) 2,982 6.2 -10.1°
